Simultaneous Nadir Overpasses (SNOs) Predictions

Prediction of SNOs between NOAA-20 and LANDSAT-8 Satellite Orbit:

Table of predicted SNOs for the next 14.0 days since TLE Epoch: 2/9/2019
Index Date (NOAA-20) Time (NOAA-20) Lat,Lon (NOAA-20) SZA (NOAA-20 ) Date (LANDSAT-8) Time (LANDSAT-8) Lat,Lon (LANDSAT-8) SZA (LANDSAT-8 ) Distance(km) Time Diff (sec)
1 02/09/2019 06:32:36 70.13, 78.06 84.93 02/09/2019 06:33:25 70.12, 78.04 84.90 2.18 49
2 02/09/2019 07:23:18 -70.04,-114.48 95.19 02/09/2019 07:22:54 -70.06,-114.41 95.17 3.26 24
3 02/11/2019 22:49:32 70.09,-166.10 84.01 02/11/2019 22:49:54 70.12,-166.08 84.03 3.38 22
4 02/11/2019 23:40:14 -70.00, 1.36 96.11 02/11/2019 23:39:24 -70.01, 1.40 96.08 2.23 50
5 02/14/2019 14:15:45 -70.21, 142.17 96.75 02/14/2019 14:16:57 -70.18, 142.24 96.80 4.35 72
6 02/14/2019 15:06:28 70.05, -50.27 83.07 02/14/2019 15:06:24 70.07, -50.27 83.09 2.66 4
7 02/14/2019 15:57:08 -69.85, 117.36 97.16 02/14/2019 15:55:55 -69.91, 117.14 97.08 10.98 73
8 02/17/2019 06:32:40 -70.12,-101.91 97.77 02/17/2019 06:33:27 -70.14,-101.94 97.76 2.62 47
9 02/17/2019 07:23:24 70.01, 65.56 82.10 02/17/2019 07:22:54 70.03, 65.55 82.13 2.35 30
10 02/19/2019 21:59:07 70.92,-154.74 82.14 02/19/2019 22:00:15 70.81,-152.71 81.94 75.09 68
11 02/19/2019 22:49:35 -70.08, 13.92 98.76 02/19/2019 22:49:56 -70.11, 13.89 98.74 2.97 21
12 02/19/2019 23:40:19 69.97,-178.61 81.12 02/19/2019 23:39:23 69.99,-178.63 81.15 2.31 56
13 02/22/2019 14:15:50 70.20, -37.81 80.41 02/22/2019 14:16:56 70.18, -37.77 80.37 3.05 66
14 02/22/2019 15:06:32 -70.10, 129.66 99.72 02/22/2019 15:06:26 -70.08, 129.72 99.74 3.28 6
15 02/22/2019 15:57:09 69.62, -62.31 79.77 02/22/2019 15:55:58 69.69, -63.18 79.89 34.31 71




NCC Satellite Simultaneous Nadir Overpasses (SNOs) Prediction Service
